Regional Weather Roundup
Issued by NWS

Home | Current Version | Previous Version | Text Only | Print | Product List | Glossary On
Versions: 1 2 3 4 5 6 7 8 9 10 11 12 13 14 15 16 17 18 19 20 21 22 23 24 25 26 27 28 29 30 31 32 33 34 35 36 37 38 39 40 41 42 43 44 45 46 47 48 49 50
000
ASUS45 KPSR 201410
RWRAZ

ARIZONA REGIONAL HOURLY WEATHER ROUNDUP
NATIONAL WEATHER SERVICE PHOENIX AZ
700 AM MST SUN APR 20 2014

NOTE: FAIR INDICATES FEW OR NO CLOUDS BELOW 12,000 FEET WITH NO
SIGNIFICANT WEATHER AND/OR OBSTRUCTIONS TO VISIBILITY.

AZZ001>003-036-201500-
NORTHWEST ARIZONA

CITY           SKY/WX    TMP DP  RH WIND       PRES   REMARKS
BULLHEAD CITY  SUNNY     68  39  34 CALM      30.00R
KINGMAN        SUNNY     58  37  45 SE8       30.10R
$$

AZZ004>008-015-016-018-201500-
NORTH CENTRAL ARIZONA

CITY           SKY/WX    TMP DP  RH WIND       PRES   REMARKS
GRAND CANYON   SUNNY     34  32  92 CALM      30.24R
WILLIAMS       SUNNY     37  32  81 SE6       30.31R WCI  33
PRESCOTT       SUNNY     48  36  63 CALM      30.18R
FLAGSTAFF      SUNNY     44  36  73 S3        30.24R
PAYSON         SUNNY     48  37  66 CALM      30.20R
PAGE           SUNNY     56  35  45 SE3       30.12R
$$

AZZ009>014-017-201500-
NORTHEAST ARIZONA

CITY           SKY/WX    TMP DP  RH WIND       PRES   REMARKS
WINSLOW        SUNNY     44  38  79 SE3       30.17R
SAINT JOHNS    SUNNY     46  36  68 SE3       30.19R
WINDOW ROCK    SUNNY     38  35  89 CALM      30.21R
SHOW LOW       SUNNY     45  36  70 S6        30.24R
$$

AZZ023-201500-
GREATER PHOENIX AREA

CITY           SKY/WX    TMP DP  RH WIND       PRES   REMARKS
PHOENIX        SUNNY     67  43  41 E9        30.01R
BUCKEYE          N/A     61  36  39 NW3       30.03R
GLENDALE       SUNNY     64  39  39 VRB3      30.04
LUKE AFB       NOT AVBL
DEER VALLEY    SUNNY     67  41  38 E6        30.03R
SCOTTSDALE     SUNNY     66  43  43 CALM      30.05R
MESA-FALCON    SUNNY     64  39  39 N5        30.04R
MESA-GATEWAY   SUNNY     63  41  45 SE6       30.05R
CHANDLER       SUNNY     63  45  51 MISG      30.04R
$$

AZZ027-028-201500-
SOUTHWEST MARICOPA COUNTY AND PINAL COUNTY

CITY           SKY/WX    TMP DP  RH WIND       PRES   REMARKS
CASA GRANDE    SUNNY     63  39  42 CALM      30.05R
$$

AZZ503-504-507>509-201500-
SOUTHEAST ARIZONA

CITY           SKY/WX    TMP DP  RH WIND       PRES   REMARKS
TUCSON         SUNNY     59  42  53 SE9       30.10R
DAVIS-MONTHAN  SUNNY     59  42  52 S7        30.09R
RYAN FIELD       N/A     55  43  62 E3        30.10R
NOGALES        SUNNY     51  39  63 CALM      30.12R
SIERRA VISTA   SUNNY     56  40  55 MISG      30.16R
DOUGLAS        SUNNY     47  43  86 SE3       30.15R
SAFFORD        SUNNY     52  41  66 CALM      30.11R
$$

AZZ020-021-025-026-031-201500-
SOUTHWEST ARIZONA

CITY           SKY/WX    TMP DP  RH WIND       PRES   REMARKS
YUMA           SUNNY     70  44  39 E3        29.98R
$$

CAZ031-033-041-043-047-048-061-201500-
SOUTHERN CALIFORNIA

CITY           SKY/WX    TMP DP  RH WIND       PRES   REMARKS
DOWNTOWN L.A.  PTCLDY    59  55  87 CALM      30.04R FOG
L.A. AIRPORT   PTCLDY    58  55  90 E3        30.05R
SAN DIEGO      CLOUDY    61  55  81 NE3       30.06R
BURBANK        PTCLDY    56  51  84 CALM      30.04R
ONTARIO        CLEAR     56  52  86 CALM      30.05R
RIVERSIDE      CLEAR     56  51  84 NE3       30.05R
PALM SPRINGS   CLEAR     71  48  43 NW9       30.00R
EL CENTRO NAS  SUNNY     64  51  62 SE3       29.96R
IMPERIAL       SUNNY     66  57  72 SE6       29.95R
BLYTHE         SUNNY     67  38  34 N6        29.98R
NEEDLES        SUNNY     74  38  27 S3        29.99R
$$

NVZ020-UTZ003-201500-
SOUTHERN NEVADA-UTAH

CITY           SKY/WX    TMP DP  RH WIND       PRES   REMARKS
LAS VEGAS      MOSUNNY   67  37  33 SW6       29.98R
SALT LAKE CITY PTSUNNY   53  42  66 CALM      30.09R
$$

NMZ009-TXZ055-201500-
NEW MEXICO-WEST TEXAS

CITY           SKY/WX    TMP DP  RH WIND       PRES   REMARKS
ALBUQUERQUE    PTSUNNY   48  44  86 SE6       30.15R
EL PASO        MOSUNNY   54  50  86 CALM      30.14R
$$


........................KEY........................
SKY/WX - SKY CONDITION/WEATHER
TMP    - TEMPERATURE IN FAHRENHEIT
DP     - DEW POINT IN FAHRENHEIT
RH     - RELATIVE HUMIDITY IN PERCENT
WIND   - DIRECTION AND SPEED IN MILES PER HOUR (MPH)
VRB    - VARIABLE WIND DIRECTION
PRES   - MEAN SEA LEVEL PRESSURE IN INCHES OF MERCURY
         F - FALLING PRESSURE   R - RISING PRESSURE
         S - STEADY PRESSURE
VSB    - VISIBILITY IN MILES
HX     - HEAT INDEX IN FAHRENHEIT
WCI    - WIND CHILL INDEX IN FAHRENHEIT
TC     - TEMPERATURE IN CELSIUS WHICH IS ALSO KNOWN AS
         TEMPERATURE IN CENTIGRADE
AFB    - AIR FORCE BASE
         LUKE AFB IS LUKE AIR FORCE BASE
         DAVIS-MONTHAN IS DAVIS-MONTHAN AIR FORCE BASE
NAS    - NAVAL AIR STATION
         EL CENTRO NAS IS EL CENTRO NAVAL AIR STATION
N/A    - NOT AVAILABLE



USA.gov is the U.S. government's official web portal to all federal, state and local government web resources and services.